SDO

Last updated on Thu Jul 03 2025 00:02:45 GMT+0000 (Coordinated Universal Time)

1 36395U 10005A 25183.28715214 -.00000081 00000+0 00000+0 0 9999 2 36395 33.9163 91.6938 0000915 74.1740 116.0115 1.00270484 56559
UTC large
Height (km)
Speed (km/s)
/
Latitude / Longitude
Inclination (degrees)
Orbital Period (minutes)
Azimuth
Elevation
Range (km)
Doppler Factor

Next 0 passes for location: London (51.5072 / 0.1276)

Sorry there are no passes over London.